Content
SEND FEEDBACK

Daily
Averages
Monthly
Summary
United States of America

MIDLAND, MICHIGAN


Home > North America > United States > Michigan
Elevation: 628 feet     Latitude: 43 39N     Longitude: 084 15W

WEATHER
 
SELECT A DAY
Number of Records: 115,553;   Date Range: 1/13/10 - 11/19/14
 
SHARE

PRINT THIS DATA

[ ← Previous Day ]
WEATHER ALMANAC - JUNE 26, 2013
[ Next Day → ]
[ °C ]   °F
We're sorry. There is no daily almanac available for Midland, Michigan on June 26, 2013.
WEATHER BY HOUR - JUNE 26, 2013
[ °C ]   °F
Local TimeTemperatureDewpointHumidityBarometerVisibilityWind DirectionWind SpeedGust SpeedPrecipitationEventsConditions
12:32 AM69.8 °F67.3 °F92 %29.86 in10.0 miWSW (240°)3.5 mphScattered Clouds
12:51 AM67.8 °F65.8 °F93 %29.86 in10.0 miCalmScattered Clouds
1:11 AM66.2 °F65.3 °F97 %29.86 in10.0 miCalmClear
1:32 AM66.6 °F66.2 °F99 %29.85 in7.0 miCalmClear
1:51 AM66.2 °F65.5 °F98 %29.85 in10.0 miCalmClear
2:12 AM65.3 °F64.4 °F97 %29.84 in7.0 miCalmClear
2:31 AM64.2 °F63.7 °F98 %29.83 in3.0 miCalmClear
2:51 AM63.7 °F63.3 °F99 %29.82 in1.0 miCalmMist
3:12 AM63.7 °F63.3 °F99 %29.81 in5.0 miCalmClear
3:32 AM62.8 °F62.4 °F99 %29.81 in5.0 miCalmClear
3:51 AM63.3 °F63.0 °F99 %29.81 in7.0 miCalmClear
4:12 AM63.1 °F62.8 °F99 %29.81 in5.0 miCalmClear
4:31 AM63.1 °F62.8 °F99 %29.81 in7.0 miCalmClear
4:52 AM62.6 °F62.4 °F99 %29.82 in1.2 miCalmMist
5:12 AM61.3 °F61.0 °F99 %29.81 in0.8 miCalmMist
5:31 AM60.4 °F60.1 °F99 %29.81 in1.5 miCalmMist
5:52 AM60.8 °F60.4 °F99 %29.81 in1.0 miCalmMist
6:12 AM61.3 °F61.2 °F99 %29.82 in4.0 miCalmClear
6:31 AM61.5 °F61.3 °F99 %29.82 in4.0 miCalmClear
6:52 AM63.1 °F63.0 °F99 %29.82 in5.0 miCalmClear
7:11 AM64.4 °F64.2 °F99 %29.83 in5.0 miCalmClear
7:31 AM65.8 °F65.7 °F99 %29.83 in7.0 miCalmClear
7:52 AM68.7 °F66.6 °F93 %29.84 in10.0 miCalmClear
8:07 AM69.8 °F67.3 °F92 %29.83 in10.0 miCalmClear
8:32 AM71.4 °F67.3 °F87 %29.84 in10.0 miCalmClear
8:51 AM72.9 °F67.5 °F83 %29.84 in10.0 miCalmClear
9:12 AM74.3 °F67.8 °F80 %29.84 in10.0 miCalmClear
9:31 AM75.6 °F68.2 °F78 %29.84 in10.0 miSSW (200°)3.5 mphClear
9:52 AM77.4 °F67.8 °F72 %29.84 in10.0 miWest (260°)4.6 mphClear
10:11 AM77.2 °F68.5 °F75 %29.84 in10.0 miSW (230°)4.6 mphScattered Clouds
10:32 AM78.6 °F68.2 °F70 %29.84 in10.0 miCalmScattered Clouds
10:52 AM77.2 °F67.6 °F72 %29.84 in10.0 miSSW (210°)3.5 mphScattered Clouds
11:12 AM77.2 °F67.3 °F71 %29.83 in10.0 miCalmMostly Cloudy
11:31 AM77.7 °F67.6 °F71 %29.83 in10.0 miSW (220°)5.8 mphMostly Cloudy
11:52 AM80.4 °F68.0 °F66 %29.83 in10.0 miSW (230°)5.8 mphMostly Cloudy
12:11 PM79.9 °F67.5 °F66 %29.83 in10.0 miSW (230°)6.9 mphMostly Cloudy
12:31 PM81.1 °F67.6 °F63 %29.82 in10.0 miCalmScattered Clouds
12:52 PM80.8 °F67.1 °F63 %29.82 in10.0 miWSW (240°)6.9 mphMostly Cloudy
1:12 PM81.9 °F67.5 °F62 %29.82 in10.0 miSSW (200°)5.8 mphMostly Cloudy
1:31 PM82.4 °F67.3 °F60 %29.82 in10.0 miSSW (210°)3.5 mphScattered Clouds
1:52 PM82.4 °F66.6 °F59 %29.81 in10.0 miWSW (250°)4.6 mphScattered Clouds
2:12 PM83.1 °F67.1 °F58 %29.81 in10.0 miCalmClear
2:31 PM83.8 °F66.9 °F57 %29.80 in10.0 miSSE (160°)3.5 mphScattered Clouds
2:52 PM84.2 °F67.1 °F56 %29.79 in10.0 miSouth (180°)9.2 mphScattered Clouds
3:11 PM84.7 °F66.4 °F54 %29.79 in10.0 miCalmScattered Clouds
3:32 PM84.6 °F66.2 °F54 %29.78 in10.0 miSE (140°)4.6 mphClear
3:52 PM83.8 °F66.4 °F56 %29.78 in10.0 miSE (140°)8.1 mphScattered Clouds
4:12 PM85.5 °F66.6 °F53 %29.78 in10.0 miSSW (200°)3.5 mphScattered Clouds
4:32 PM86.5 °F66.9 °F52 %29.78 in10.0 miSouth (190°)6.9 mphMostly Cloudy
4:51 PM86.4 °F66.2 °F51 %29.77 in10.0 miWSW (240°)4.6 mphMostly Cloudy
5:12 PM85.8 °F65.3 °F50 %29.76 in10.0 miCalmMostly Cloudy
5:32 PM85.8 °F64.8 °F49 %29.76 in10.0 miEast (90°)3.5 mphScattered Clouds
5:52 PM85.8 °F66.4 °F52 %29.76 in10.0 miSW (230°)4.6 mphScattered Clouds
6:12 PM86.2 °F66.4 °F51 %29.76 in10.0 miCalmMostly Cloudy
6:32 PM86.0 °F66.0 °F51 %29.76 in10.0 miCalmMostly Cloudy
6:52 PM85.3 °F66.0 °F52 %29.76 in10.0 miSSE (160°)3.5 mphMostly Cloudy
7:12 PM85.3 °F65.5 °F51 %29.75 in10.0 miESE (120°)5.8 mphScattered Clouds
7:17 PM85.3 °F66.4 °F53 %29.75 in10.0 miESE (110°)6.9 mphScattered Clouds
7:51 PM82.2 °F69.1 °F64 %29.75 in10.0 miENE (70°)9.2 mphMostly Cloudy
8:12 PM79.9 °F69.1 °F69 %29.75 in10.0 miEast (80°)8.1 mphScattered Clouds
8:31 PM79.7 °F68.7 °F69 %29.76 in10.0 miEast (90°)6.9 mphScattered Clouds
8:52 PM79.0 °F68.5 °F70 %29.75 in10.0 miENE (70°)3.5 mphScattered Clouds
9:12 PM75.9 °F69.1 °F79 %29.75 in10.0 miENE (60°)3.5 mphClear
9:31 PM75.4 °F68.7 °F80 %29.76 in10.0 miENE (60°)4.6 mphClear
9:52 PM74.5 °F69.1 °F83 %29.77 in10.0 miCalmClear
10:12 PM73.2 °F70.0 °F90 %29.78 in10.0 miCalmClear
10:31 PM73.8 °F69.8 °F87 %29.78 in10.0 miCalmClear
10:52 PM73.8 °F68.9 °F85 %29.77 in10.0 miCalmClear
11:12 PM74.3 °F69.1 °F84 %29.78 in10.0 miCalmClear
11:32 PM72.5 °F69.8 °F91 %29.76 in10.0 miCalmClear
11:52 PM72.1 °F70.0 °F93 %29.77 in10.0 miCalmClear
Hourly data recorded from KIKW, located miles away from Midland, Michigan







STORIES FROM OUR PARTNERS